| time (UTC) | temp F | wind direction | speed MPH | gust MPH | rain 1hr in | rain 24hr in | rain mn in | humidity % | barometer mb |
| 20260903034608 | 84 | 0 | 0.0 | 0.0 | 0.00 | 0.00 | 0.00 | 61 | 1012.9 |
| 20260903033105 | 85 | 0 | 0.0 | 0.0 | 0.00 | 0.00 | 0.00 | 61 | 1012.9 |
| 20260903031558 | 85 | 0 | 0.0 | 0.0 | 0.00 | 0.00 | 0.00 | 60 | 1012.8 |
| 20260903030129 | 86 | 0 | 0.0 | 0.0 | 0.00 | 0.00 | 0.00 | 59 | 1012.8 |
| 20260903024604 | 87 | 0 | 0.0 | 0.0 | 0.00 | 0.00 | 0.00 | 57 | 1012.8 |
| 20260903023110 | 87 | 0 | 0.0 | 0.0 | 0.00 | 0.00 | 0.00 | 56 | 1012.7 |
| 20260903021559 | 88 | 0 | 0.0 | 0.0 | 0.00 | 0.00 | 0.00 | 55 | 1012.5 |
| 20260903020106 | 89 | 0 | 0.0 | 0.0 | 0.00 | 0.00 | 0.00 | 53 | 1012.4 |
| 20260903014611 | 91 | 0 | 0.0 | 1.0 | 0.00 | 0.00 | 0.00 | 50 | 1012.2 |
| 20260903013102 | 92 | 0 | 0.0 | 1.0 | 0.00 | 0.00 | 0.00 | 47 | 1012.0 |
| 20260903011608 | 93 | 0 | 0.0 | 1.0 | 0.00 | 0.00 | 0.00 | 46 | 1011.8 |
| 20260903010107 | 94 | 0 | 0.0 | 2.0 | 0.00 | 0.00 | 0.00 | 44 | 1011.7 |
| 20260903004606 | 95 | 0 | 0.0 | 3.0 | 0.00 | 0.00 | 0.00 | 42 | 1011.7 |
| 20260903003102 | 96 | 90 | 0.0 | 3.0 | 0.00 | 0.00 | 0.00 | 41 | 1011.8 |
| 20260903001611 | 97 | 134 | 1.0 | 5.0 | 0.00 | 0.00 | 0.00 | 39 | 1011.8 |
| 20260903000111 | 98 | 136 | 2.0 | 6.0 | 0.00 | 0.00 | 0.00 | 37 | 1011.8 |
| 20260902234605 | 99 | 131 | 1.0 | 4.0 | 0.00 | 0.00 | 0.00 | 36 | 1011.9 |
| 20260902233111 | 99 | 180 | 0.0 | 6.0 | 0.00 | 0.00 | 0.00 | 35 | 1011.9 |
| 20260902231604 | 99 | 0 | 1.0 | 8.0 | 0.00 | 0.00 | 0.00 | 33 | 1011.9 |
| 20260902230105 | 100 | 85 | 4.0 | 10.0 | 0.00 | 0.00 | 0.00 | 33 | 1012.0 |
| 20260902224618 | 100 | 133 | 1.0 | 7.0 | 0.00 | 0.00 | 0.00 | 33 | 1012.0 |
| 20260902223100 | 100 | 105 | 2.0 | 8.0 | 0.00 | 0.00 | 0.00 | 35 | 1012.1 |
| 20260902221623 | 101 | 105 | 2.0 | 9.0 | 0.00 | 0.00 | 0.00 | 33 | 1012.1 |
| 20260902220111 | 101 | 93 | 2.0 | 10.0 | 0.00 | 0.00 | 0.00 | 35 | 1012.3 |
| 20260902214601 | 101 | 133 | 2.0 | 8.0 | 0.00 | 0.00 | 0.00 | 34 | 1012.2 |
| 20260902213105 | 102 | 163 | 1.0 | 9.0 | 0.00 | 0.00 | 0.00 | 36 | 1012.3 |
| 20260902211602 | 102 | 115 | 3.0 | 9.0 | 0.00 | 0.00 | 0.00 | 34 | 1012.5 |
| 20260902210058 | 102 | 0 | 2.0 | 9.0 | 0.00 | 0.00 | 0.00 | 31 | 1012.7 |
| 20260902204616 | 102 | 130 | 2.0 | 10.0 | 0.00 | 0.00 | 0.00 | 32 | 1012.9 |
| 20260902203106 | 102 | 269 | 1.0 | 8.0 | 0.00 | 0.00 | 0.00 | 34 | 1013.1 |
| 20260902201601 | 103 | 266 | 1.0 | 9.0 | 0.00 | 0.00 | 0.00 | 34 | 1013.3 |
| 20260902200109 | 102 | 75 | 2.0 | 9.0 | 0.00 | 0.00 | 0.00 | 35 | 1013.5 |
| 20260902194620 | 101 | 0 | 1.0 | 12.0 | 0.00 | 0.00 | 0.00 | 37 | 1013.7 |
| 20260902193105 | 102 | 0 | 1.0 | 7.0 | 0.00 | 0.00 | 0.00 | 36 | 1014.1 |
| 20260902191608 | 102 | 111 | 0.0 | 6.0 | 0.00 | 0.00 | 0.00 | 36 | 1014.3 |
| 20260902184657 | 101 | 116 | 0.0 | 8.0 | 0.00 | 0.00 | 0.00 | 36 | 1014.7 |
| 20260902183139 | 100 | 323 | 1.0 | 8.0 | 0.00 | 0.00 | 0.00 | 37 | 1015.1 |
| 20260902181610 | 99 | 67 | 2.0 | 9.0 | 0.00 | 0.00 | 0.00 | 39 | 1015.2 |
| 20260902180106 | 99 | 104 | 2.0 | 9.0 | 0.00 | 0.00 | 0.00 | 41 | 1015.4 |
| 20260902174606 | 99 | 0 | 1.0 | 8.0 | 0.00 | 0.00 | 0.00 | 43 | 1015.6 |
| 20260902173103 | 99 | 246 | 2.0 | 7.0 | 0.00 | 0.00 | 0.00 | 43 | 1015.7 |
| 20260902171626 | 98 | 107 | 1.0 | 7.0 | 0.00 | 0.00 | 0.00 | 43 | 1015.8 |
| 20260902170058 | 97 | 132 | 1.0 | 10.0 | 0.00 | 0.00 | 0.00 | 45 | 1016.0 |
| 20260902164635 | 97 | 107 | 2.0 | 8.0 | 0.00 | 0.00 | 0.00 | 45 | 1016.2 |
| 20260902163101 | 97 | 0 | 0.0 | 7.0 | 0.00 | 0.00 | 0.00 | 46 | 1016.3 |
| 20260902161600 | 96 | 248 | 1.0 | 7.0 | 0.00 | 0.00 | 0.00 | 47 | 1016.3 |
| 20260902160111 | 95 | 185 | 1.0 | 7.0 | 0.00 | 0.00 | 0.00 | 49 | 1016.4 |
| 20260902154602 | 94 | 0 | 0.0 | 8.0 | 0.00 | 0.00 | 0.00 | 51 | 1016.4 |
| 20260902153059 | 92 | 0 | 1.0 | 7.0 | 0.00 | 0.00 | 0.00 | 52 | 1016.4 |
| 20260902151603 | 92 | 147 | 1.0 | 5.0 | 0.00 | 0.00 | 0.00 | 54 | 1016.6 |
| 20260902150105 | 90 | 133 | 1.0 | 6.0 | 0.00 | 0.00 | 0.00 | 55 | 1016.6 |
| 20260902144609 | 89 | 174 | 0.0 | 4.0 | 0.00 | 0.00 | 0.00 | 57 | 1016.6 |
| 20260902143103 | 87 | 194 | 0.0 | 5.0 | 0.00 | 0.00 | 0.00 | 59 | 1016.5 |
| 20260902141601 | 86 | 148 | 0.0 | 4.0 | 0.00 | 0.00 | 0.00 | 62 | 1016.5 |
| 20260902140058 | 84 | 165 | 0.0 | 4.0 | 0.00 | 0.00 | 0.00 | 65 | 1016.5 |
| 20260902134605 | 83 | 0 | 0.0 | 3.0 | 0.00 | 0.00 | 0.00 | 67 | 1016.5 |
| 20260902133103 | 80 | 0 | 0.0 | 4.0 | 0.00 | 0.00 | 0.00 | 70 | 1016.6 |
| 20260902131613 | 79 | 0 | 1.0 | 4.0 | 0.00 | 0.00 | 0.00 | 72 | 1016.5 |
| 20260902130112 | 78 | 124 | 0.0 | 3.0 | 0.00 | 0.00 | 0.00 | 75 | 1016.6 |
| 20260902124604 | 76 | 128 | 0.0 | 2.0 | 0.00 | 0.00 | 0.00 | 77 | 1016.4 |
| 20260902123102 | 76 | 0 | 0.0 | 1.0 | 0.00 | 0.00 | 0.00 | 77 | 1016.2 |
| 20260902121604 | 75 | 0 | 0.0 | 0.0 | 0.00 | 0.00 | 0.00 | 78 | 1016.1 |
| 20260902114620 | 75 | 0 | 0.0 | 2.0 | 0.00 | 0.00 | 0.00 | 77 | 1015.6 |
| 20260902113057 | 75 | 0 | 0.0 | 0.0 | 0.00 | 0.00 | 0.00 | 77 | 1015.5 |
| 20260902111603 | 75 | 0 | 0.0 | 1.0 | 0.00 | 0.00 | 0.00 | 77 | 1015.5 |
| 20260902110106 | 76 | 0 | 0.0 | 0.0 | 0.00 | 0.00 | 0.00 | 76 | 1015.4 |
| 20260902104601 | 76 | 0 | 0.0 | 0.0 | 0.00 | 0.00 | 0.00 | 76 | 1015.4 |
| 20260902103108 | 76 | 0 | 0.0 | 1.0 | 0.00 | 0.00 | 0.00 | 75 | 1015.4 |
| 20260902101604 | 76 | 0 | 0.0 | 1.0 | 0.00 | 0.00 | 0.00 | 75 | 1015.4 |
| 20260902100101 | 77 | 0 | 0.0 | 0.0 | 0.00 | 0.00 | 0.00 | 73 | 1015.3 |
| 20260902094559 | 77 | 134 | 0.0 | 3.0 | 0.00 | 0.00 | 0.00 | 74 | 1015.2 |
| 20260902093103 | 77 | 0 | 0.0 | 1.0 | 0.00 | 0.00 | 0.00 | 74 | 1015.1 |
| 20260902091616 | 77 | 0 | 0.0 | 1.0 | 0.00 | 0.00 | 0.00 | 74 | 1014.9 |
| 20260902090059 | 77 | 0 | 0.0 | 1.0 | 0.00 | 0.00 | 0.00 | 73 | 1014.9 |
| 20260902084602 | 77 | 0 | 0.0 | 1.0 | 0.00 | 0.00 | 0.00 | 73 | 1015.0 |
| 20260902083104 | 77 | 0 | 0.0 | 2.0 | 0.00 | 0.00 | 0.00 | 72 | 1014.9 |
| 20260902081611 | 77 | 0 | 0.0 | 1.0 | 0.00 | 0.00 | 0.00 | 72 | 1014.7 |
| 20260902080059 | 77 | 0 | 0.0 | 3.0 | 0.00 | 0.00 | 0.00 | 72 | 1014.8 |
| 20260902074559 | 77 | 0 | 0.0 | 1.0 | 0.00 | 0.00 | 0.00 | 72 | 1014.7 |
| 20260902073100 | 77 | 0 | 0.0 | 1.0 | 0.00 | 0.00 | 0.00 | 73 | 1014.7 |
| 20260902071605 | 77 | 0 | 0.0 | 1.0 | 0.00 | 0.00 | 0.00 | 73 | 1014.7 |
| 20260902070114 | 78 | 0 | 0.0 | 0.0 | 0.00 | 0.00 | 0.00 | 71 | 1014.7 |
| 20260902064601 | 78 | 0 | 0.0 | 0.0 | 0.00 | 0.00 | 0.00 | 70 | 1014.7 |
| 20260902063109 | 79 | 0 | 0.0 | 1.0 | 0.00 | 0.00 | 0.00 | 68 | 1014.7 |
| 20260902061603 | 79 | 0 | 0.0 | 1.0 | 0.00 | 0.00 | 0.00 | 67 | 1014.7 |
| 20260902060128 | 78 | 0 | 0.0 | 0.0 | 0.00 | 0.00 | 0.00 | 67 | 1014.6 |
| 20260902054601 | 78 | 0 | 0.0 | 3.0 | 0.00 | 0.00 | 0.00 | 68 | 1014.5 |
| 20260902053120 | 79 | 0 | 0.0 | 0.0 | 0.00 | 0.00 | 0.00 | 68 | 1014.4 |
| 20260902051558 | 80 | 0 | 0.0 | 0.0 | 0.00 | 0.00 | 0.00 | 67 | 1014.4 |
| 20260902044605 | 81 | 0 | 0.0 | 0.0 | 0.00 | 0.00 | 0.00 | 66 | 1014.4 |
| 20260902043103 | 81 | 0 | 0.0 | 0.0 | 0.00 | 0.00 | 0.00 | 65 | 1014.5 |
| 20260902041610 | 81 | 0 | 0.0 | 0.0 | 0.00 | 0.00 | 0.00 | 64 | 1014.4 |